W6MAF Weather Reports


Display with metric or nautical units.
time (UTC)temp
F
wind
direction
speed
MPH
gust
MPH
rain 1hr
in
rain 24hr
in
rain mn
in
humidity
%
barometer
mb
20260505055806 44 194 10.0 13.0 0.00 0.00 0.00 84
20260505055309 44 203 10.0 11.0 0.00 0.00 0.00 83
20260505054811 44 186 8.0 9.0 0.00 0.00 0.00 83
20260505053816 44 197 9.0 12.0 0.00 0.00 0.00 81
20260505053315 45 186 10.0 10.0 0.00 0.00 0.00 80
20260505052817 45 184 11.0 9.0 0.00 0.00 0.00 79
20260505052319 45 190 14.0 13.0 0.00 0.00 0.00 77
20260505051822 45 190 11.0 14.0 0.00 0.00 0.00 76
20260505051327 45 194 11.0 10.0 0.00 0.00 0.00 74
20260505050826 45 238 8.0 7.0 0.00 0.00 0.00 74
20260505050326 45 200 11.0 10.0 0.00 0.00 0.00 74
20260505041346 45 193 9.0 10.0 0.00 0.00 0.00 74
20260505040848 46 198 12.0 9.0 0.00 0.00 0.00 74
20260505040350 46 201 11.0 15.0 0.00 0.00 0.00 74
20260505035850 46 190 8.0 9.0 0.00 0.00 0.00 74
20260505035352 46 193 10.0 12.0 0.00 0.00 0.00 74
20260505034855 46 187 14.0 14.0 0.00 0.00 0.00 75
20260505034357 46 195 15.0 15.0 0.00 0.00 0.00 76
20260505033859 46 191 12.0 11.0 0.00 0.00 0.00 76
20260505033358 46 184 14.0 16.0 0.00 0.00 0.00 77
20260505032901 46 198 12.0 13.0 0.00 0.00 0.00 77
20260505032403 46 187 13.0 11.0 0.00 0.00 0.00 78
20260505031905 46 169 15.0 12.0 0.00 0.00 0.00 79
20260505031408 46 186 14.0 19.0 0.00 0.00 0.00 78
20260505030910 47 177 15.0 18.0 0.00 0.00 0.00 78
20260505030409 47 187 16.0 12.0 0.00 0.00 0.00 77
20260505025911 47 172 13.0 11.0 0.00 0.00 0.00 76
20260505025414 47 188 13.0 12.0 0.00 0.00 0.00 77
20260505024917 47 183 14.0 13.0 0.00 0.00 0.00 78
20260505024418 47 191 16.0 13.0 0.00 0.00 0.00 78
20260505023921 47 158 17.0 15.0 0.00 0.00 0.00 77
20260505023422 47 188 21.0 23.0 0.00 0.00 0.00 76
20260505022922 47 186 22.0 22.0 0.00 0.00 0.00 75
20260505022425 48 167 17.0 16.0 0.00 0.00 0.00 73
20260505021927 48 191 17.0 22.0 0.00 0.00 0.00 71
20260505021429 48 193 20.0 24.0 0.00 0.00 0.00 70
20260505020932 49 187 15.0 19.0 0.00 0.00 0.00 67
20260505020431 49 194 18.0 22.0 0.00 0.00 0.00 65
20260505015933 49 183 17.0 17.0 0.00 0.00 0.00 64
20260505015436 50 186 16.0 12.0 0.00 0.00 0.00 62
20260505014938 50 200 15.0 21.0 0.00 0.00 0.00 61
20260505014440 50 172 16.0 11.0 0.00 0.00 0.00 60
20260505013942 50 188 18.0 17.0 0.00 0.00 0.00 59
20260505013442 50 195 19.0 21.0 0.00 0.00 0.00 57
20260505012944 51 188 15.0 19.0 0.00 0.00 0.00 56
20260505012446 51 207 15.0 16.0 0.00 0.00 0.00 56
20260505011949 51 203 16.0 17.0 0.00 0.00 0.00 56
20260505011451 51 200 14.0 20.0 0.00 0.00 0.00 56
20260505010953 51 187 21.0 21.0 0.00 0.00 0.00 56
20260505010452 51 187 20.0 16.0 0.00 0.00 0.00 56
20260505005000 52 193 24.0 24.0 0.00 0.00 0.00 53
20260505004502 52 186 20.0 20.0 0.00 0.00 0.00 52
20260505004004 52 201 20.0 20.0 0.00 0.00 0.00 50
20260505003503 52 177 16.0 13.0 0.00 0.00 0.00 52
20260505003006 52 197 22.0 27.0 0.00 0.00 0.00 50
20260505002559 53 184 22.0 24.0 0.00 0.00 0.00 49
20260505002508 53 184 22.0 24.0 0.00 0.00 0.00 49
20260505002011 53 201 19.0 20.0 0.00 0.00 0.00 47
20260505001513 53 183 17.0 23.0 0.00 0.00 0.00 46
20260505001015 53 194 22.0 14.0 0.00 0.00 0.00 46
20260505000514 53 211 22.0 14.0 0.00 0.00 0.00 45
20260505000016 54 184 18.0 16.0 0.00 0.00 0.00 44
20260504235519 54 191 17.0 15.0 0.00 0.00 0.00 44
20260504235021 54 193 15.0 14.0 0.00 0.00 0.00 42
20260504234523 55 188 21.0 21.0 0.00 0.00 0.00 40
20260504234027 55 191 18.0 17.0 0.00 0.00 0.00 38
20260504233526 55 218 17.0 10.0 0.00 0.00 0.00 38
20260504233027 55 200 15.0 11.0 0.00 0.00 0.00 38
20260504232032 55 194 15.0 20.0 0.00 0.00 0.00 38
20260504231712 55 181 18.0 12.0 0.00 0.00 0.00 38
20260504231535 55 181 18.0 12.0 0.00 0.00 0.00 38
20260504231037 55 194 18.0 14.0 0.00 0.00 0.00 38
20260504230536 55 183 16.0 10.0 0.00 0.00 0.00 38
20260504230038 55 194 19.0 14.0 0.00 0.00 0.00 38
20260504225541 55 187 21.0 19.0 0.00 0.00 0.00 39
20260504225043 55 191 24.0 25.0 0.00 0.00 0.00 39
20260504224545 54 180 23.0 20.0 0.00 0.00 0.00 40
20260504224048 54 201 19.0 28.0 0.00 0.00 0.00 41
20260504223648 54 176 22.0 16.0 0.00 0.00 0.00 40
20260504223547 54 176 22.0 16.0 0.00 0.00 0.00 40
20260504223049 54 198 19.0 23.0 0.00 0.00 0.00 41
20260504222654 54 167 22.0 23.0 0.00 0.00 0.00 40
20260504222551 54 167 22.0 23.0 0.00 0.00 0.00 40
20260504222139 54 190 21.0 21.0 0.00 0.00 0.00 39
20260504222054 54 190 21.0 21.0 0.00 0.00 0.00 39
20260504221556 55 204 25.0 21.0 0.00 0.00 0.00 37
20260504221058 55 190 10.0 15.0 0.00 0.00 0.00 36
20260504220558 55 187 24.0 21.0 0.00 0.00 0.00 35
20260504220100 55 205 26.0 22.0 0.00 0.00 0.00 36
20260504215602 55 159 22.0 20.0 0.00 0.00 0.00 37
20260504214607 55 197 15.0 13.0 0.00 0.00 0.00 37
20260504213111 55 203 22.0 22.0 0.00 0.00 0.00 34
20260504212613 56 197 11.0 18.0 0.00 0.00 0.00 34
20260504212115 55 188 18.0 15.0 0.00 0.00 0.00 33
20260504211618 54 212 22.0 14.0 0.00 0.00 0.00 34
20260504211120 54 198 22.0 20.0 0.00 0.00 0.00 37
20260504210619 54 174 24.0 26.0 0.00 0.00 0.00 35
20260504210122 54 173 17.0 17.0 0.00 0.00 0.00 37
20260504205624 54 173 19.0 19.0 0.00 0.00 0.00 38
20260504205212 54 159 22.0 18.0 0.00 0.00 0.00 38
20260504205127 54 159 22.0 18.0 0.00 0.00 0.00 38
20260504204629 54 174 24.0 23.0 0.00 0.00 0.00 37
20260504204131 54 173 20.0 20.0 0.00 0.00 0.00 38
20260504203630 54 167 21.0 30.0 0.00 0.00 0.00 39
20260504203133 53 166 17.0 12.0 0.00 0.00 0.00 39
20260504202739 53 176 19.0 26.0 0.00 0.00 0.00 41
20260504202635 53 176 19.0 26.0 0.00 0.00 0.00 41
20260504202137 53 193 20.0 9.0 0.00 0.00 0.00 41
20260504201640 53 198 18.0 21.0 0.00 0.00 0.00 42
20260504201219 53 203 21.0 19.0 0.00 0.00 0.00 42
20260504201142 53 203 21.0 19.0 0.00 0.00 0.00 42
20260504200642 53 160 21.0 25.0 0.00 0.00 0.00 42
20260504195149 53 190 24.0 21.0 0.00 0.00 0.00 42
20260504194650 53 174 21.0 19.0 0.00 0.00 0.00 41
20260504194308 53 205 19.0 9.0 0.00 0.00 0.00 42
20260504194153 53 205 19.0 9.0 0.00 0.00 0.00 42
20260504193653 53 198 20.0 22.0 0.00 0.00 0.00 42
20260504193340 53 187 20.0 20.0 0.00 0.00 0.00 44
20260504193154 53 187 20.0 20.0 0.00 0.00 0.00 44
20260504192735 53 181 16.0 20.0 0.00 0.00 0.00 44
20260504192657 53 181 16.0 20.0 0.00 0.00 0.00 44
20260504192159 53 159 24.0 20.0 0.00 0.00 0.00 43
20260504191701 53 195 16.0 21.0 0.00 0.00 0.00 43
20260504191204 52 195 21.0 9.0 0.00 0.00 0.00 45
20260504190205 52 198 15.0 17.0 0.00 0.00 0.00 48
20260504185708 51 194 18.0 13.0 0.00 0.00 0.00 49
20260504185210 51 174 22.0 22.0 0.00 0.00 0.00 49
20260504184801 52 187 17.0 22.0 0.00 0.00 0.00 48
20260504184713 52 187 17.0 22.0 0.00 0.00 0.00 48
20260504184215 52 197 23.0 24.0 0.00 0.00 0.00 46
20260504183714 52 201 21.0 28.0 0.00 0.00 0.00 46
20260504183216 52 200 18.0 22.0 0.00 0.00 0.00 48
20260504182719 52 186 18.0 6.0 0.00 0.00 0.00 48
20260504182335 52 200 13.0 13.0 0.00 0.00 0.00 49
20260504182221 52 200 13.0 13.0 0.00 0.00 0.00 49
20260504181227 51 205 17.0 17.0 0.00 0.00 0.00 51
20260504180725 51 184 14.0 9.0 0.00 0.00 0.00 51
20260504180227 50 200 9.0 13.0 0.00 0.00 0.00 51
20260504175729 50 188 17.0 20.0 0.00 0.00 0.00 51
20260504174734 51 183 15.0 15.0 0.00 0.00 0.00 48
20260504174236 51 194 14.0 14.0 0.00 0.00 0.00 48
20260504173821 51 208 2.0 0.0 0.00 0.00 0.00 50
20260504173736 51 208 2.0 0.0 0.00 0.00 0.00 50
20260504173238 50 163 9.0 3.0 0.00 0.00 0.00 49
20260504172741 50 184 7.0 5.0 0.00 0.00 0.00 49
20260504172243 50 198 4.0 5.0 0.00 0.00 0.00 49
20260504171745 50 232 4.0 3.0 0.00 0.00 0.00 50
20260504171353 50 190 1.0 3.0 0.00 0.00 0.00 51
20260504171247 50 190 1.0 3.0 0.00 0.00 0.00 51
20260504170747 50 150 1.0 0.0 0.00 0.00 0.00 52
20260504170347 50 172 5.0 5.0 0.00 0.00 0.00 53
20260504170250 50 172 5.0 5.0 0.00 0.00 0.00 53
20260504160311 47 111 2.0 0.0 0.00 0.00 0.00 65
20260504150830 45 184 14.0 12.0 0.00 0.00 0.00 79
20260504150332 44 190 17.0 14.0 0.00 0.00 0.00 81
20260504140851 44 200 13.0 14.0 0.00 0.00 0.00 83
20260504140354 43 229 14.0 11.0 0.00 0.00 0.00 83
20260504130415 43 226 16.0 16.0 0.00 0.00 0.00 86
20260504110458 43 222 12.0 9.0 0.00 0.00 0.00 91
20260504100520 43 212 12.0 13.0 0.00 0.00 0.00 87
20260504081601 45 198 16.0 16.0 0.00 0.00 0.00 74
20260504081100 46 176 12.0 10.0 0.00 0.00 0.00 74
20260504080603 46 191 13.0 13.0 0.00 0.00 0.00 73
20260504070127 46 217 9.0 9.0 0.00 0.00 0.00 74
20260504060148 47 156 10.0 18.0 0.00 0.00 0.00 76